Regional Weather Roundup
Issued by NWS Pendleton, OR

Home | Current Version | Previous Version | Text Only | Print | Product List | Glossary On
Versions: 1 2 3 4 5 6 7 8 9 10 11 12 13 14 15 16 17 18 19 20 21 22 23 24 25 26 27 28 29 30 31 32 33 34 35 36 37 38 39 40 41 42 43 44 45 46 47 48 49 50
995
ASUS46 KPDT 260910
RWRPDT
PENDLETON REGIONAL WEATHER ROUNDUP
NATIONAL WEATHER SERVICE PENDLETON OREGON
200 AM PDT TUE JUL 26 2016

NOTE: FAIR INDICATES FEW OR NO CLOUDS BELOW 12,000 FEET WITH NO
SIGNIFICANT WEATHER AND/OR OBSTRUCTIONS TO VISIBILITY.

# INDICATES UNOFFICIAL STATION AND DATA

WAZ520-261010-
EAST SLOPES OF WASHINGTON CASCADES

CITY            SKY/WX      TMP DP  RH  WIND    PRES   REMARKS
#CLE ELUM HS    N/A         68  53  59  W7      29.99S
#CLE ELUM 2NW   N/A         66  51  58  S5      N/A
#GLENWOOD       N/A         58  53  83  CALM    29.93S
#MANASTASH CYN  N/A         66  44  45  CALM    30.01S
#NELSON 3SW     N/A         67  49  52  CALM    30.11S
#NILE           N/A         64  54  70  CALM    29.25S
#RONALD 2NW     N/A         64  N/A N/A N1      30.14S
#TEANAWAY 4NE   N/A         63  55  75  CALM    N/A
#TROUT LAKE 1NE N/A         69  57  66  CALM    29.93S
$$

WAZ521-261010-
SIMCOE HIGHLANDS

CITY            SKY/WX      TMP DP  RH  WIND    PRES   REMARKS
#CENTERVILLE 1SWN/A         70  58  66  W2      29.87S
#GOLDENDALE 1NE N/A         69  49  49  SW3     N/A
#GOLDENDALE 4W  N/A         69  64  84  CALM    30.04S
#LYLE 6NE       N/A         68  59  73  SW7     29.91S
$$

WAZ026-261010-
KITTITAS VALLEY

CITY            SKY/WX      TMP DP  RH  WIND    PRES   REMARKS
ELLENSBURG AP   MOCLDY      71  52  51  NW16G24 29.99S
#ELLENSBURG CWU N/A         71  52  51  NW15    29.85S
#ELLENSBURG 3NE N/A         69  54  59  N7      29.99S
#ELLENSBURG     N/A         74  54  50  NW5     N/A
#KITTITAS 4N    N/A         68  52  57  NW6     30.02S
#KITTITAS 3S    N/A         65  54  68  CALM    29.89R
#THORP 6N       N/A         67  53  61  NW13G29 29.92S
$$

WAZ027-261010-
YAKIMA VALLEY

CITY            SKY/WX      TMP DP  RH  WIND    PRES   REMARKS
SUNNYSIDE AP    PTCLDY      64  58  81  CALM    29.92R
YAKIMA AIRPORT  MOCLDY      78  49  36  VRB6    29.96S
YAKIMA-VAGABOND N/A         74  49  41  E5      29.95S
#DONALD 2NE     N/A         78  13   8  N3      29.91R
#GRANDVIEW      N/A         72  56  57  CALM    29.89R
#MABTON         N/A         77  57  50  SW7     29.91R
#NACHES 2SW     N/A         71  53  53  W13     30.00R
#TERRACE HTS    N/A         74  51  44  NW1     29.85S
#WEST VALLEY    N/A         75  52  45  CALM    29.86F
#W YAKIMA       N/A         75  52  45  N3      29.88S
#WHITE SWAN 5E  N/A         66  58  75  CALM    29.89R
#WILEY CITY 3W  N/A         65  50  58  CALM    29.94R
$$

WAZ028-261010-
LOWER COLUMBIA BASIN...WASHINGTON

CITY            SKY/WX      TMP DP  RH  WIND    PRES   REMARKS
HANFORD         MOCLEAR     80  49  34  NW14    29.89R
PASCO           CLEAR       71  56  59  CALM    29.90R
PROSSER AWOS    N/A         73  57  57  W6      29.95R
RICHLAND AWOS   CLEAR       74  57  55  CALM    29.89R
#BENTON CITY    N/A         72  58  61  CALM    29.77R
#CONNELL 5N     N/A         69  57  66  CALM    29.85R
#CONNELL 5NW    N/A         67  59  75  CALM    29.82R
#ELTOPIA 6NW    N/A         71  59  66  CALM    28.88R
#KAHLOTUS       N/A         73  50  44  W6      29.85R
#KENNEWICK 3S   N/A         76  61  60  N2      29.87R
#PATERSON       N/A         75  62  64  N3      29.86R
#SAGEMOOR 2W    N/A         74  57  55  E2      29.72R
#TOUCHET 2S     N/A         77  60  56  SW15    29.85S
#WEST PASCO     N/A         76  55  48  CALM    29.87R
$$

WAZ029-261010-
FOOTHILLS OF THE BLUES...WASHINGTON

CITY            SKY/WX      TMP DP  RH  WIND    PRES   REMARKS
WALLA WALLA AP  CLEAR       76  52  43  S12     29.95R
#CLYDE 6NW      N/A         66  45  47  CALM    29.85R
#DAYTON SCHOOL  N/A         68  43  40  NE1     29.97R
#LOWDEN 2SE     N/A         72  59  64  NE1     29.88R
#PLEASANT VIEW 1N/A         76  46  34  SW7     29.87R
#PRESCOTT       N/A         63  51  65  CALM    29.87R
#WHITMAN COLLEGEN/A         74  54  50  SE3     29.93R
#WAITSBURG 5S   N/A         72  51  48  S7      29.96R
#WAITSBURG 8N   N/A         69  22  17  S3      29.92S
#WALLA WALLA U  N/A         73  54  51  CALM    29.88R
#WHITMAN MISSIONN/A         70  58  66  CALM    29.90R
$$

WAZ030-261010-
BLUE MOUNTAINS...WASHINGTON

CITY            SKY/WX      TMP DP  RH  WIND    PRES   REMARKS
#DIXIE 5SE      N/A         70  52  53  S9      29.98R
$$

ORZ009-041-WAZ024-261010-
COLUMBIA RIVER GORGE

CITY            SKY/WX      TMP DP  RH  WIND    PRES   REMARKS
HOOD RIVER AP   PTCLDY      70  57  63  NW7     30.02S
THE DALLES AP   PTCLDY      74  58  57  N10     29.96R
#ARLINGTON AIRPON/A         74  60  62  W10     29.90F
#LYLE           N/A         73  61  66  NW20    29.97S
#MARYHILL 2W    N/A         74  60  62  SW3     N/A
#MOSIER 1S      N/A         70  47  44  NW6     30.00S
#MURDOCK        N/A         75  60  60  NW13    29.92R
#RUFUS DOT      N/A         79  59  50  W18     N/A
#SMITHVILLE     N/A         74  60  62  W14     29.93R

$$

ORZ510-261010-
NORTH CENTRAL OREGON

CITY            SKY/WX      TMP DP  RH  WIND    PRES   REMARKS
#ANTELOPE       N/A         58  47  67  NE2     29.79R
#CHENOWITH 1W   N/A         67  56  68  W29     N/A
#COW CYN RST AREN/A         67  N/A N/A W2      N/A
#DUFUR 9E       N/A         68  55  63  W12     29.95F
#GRASS VALLEY 1SN/A         62  52  70  S1      29.99F
#KENT DOT       N/A         64  50  60  N8      N/A
#SHANIKO 5WSW   N/A         65  47  52  N8      N/A
#SHANIKO 4NW    N/A         65  58  78  W6      30.11S
#TYGH VALLEY 2NEN/A         65  53  65  CALM    29.93S
#WAPANITIA AIRPON/A         68  56  65  W6      29.93S
#WASCO DOT      N/A         73  58  59  W9      N/A
#WASCO 5NE      N/A         70  58  66  W12     29.89R
$$

ORZ511-261010-
CENTRAL OREGON

CITY            SKY/WX      TMP DP  RH  WIND    PRES   REMARKS
BEND AIRPORT    CLEAR       61  54  78  CALM    30.13R
MADRAS AIRPORT  CLEAR       70  59  68  N6      30.10S
PRINEVILLE AP   CLEAR       61  52  72  SW3     30.12R
REDMOND AIRPORT CLEAR       62  49  62  CALM    30.11S
#ASHWOOD SCHOOL N/A         64  49  58  CALM    30.04S
#BEND 1SW       N/A         59  51  75  CALM    N/A
#BEND-AWBREY    N/A         64  54  70  SW2     30.04S
#CULVER         N/A         65  54  68  CALM    29.88S
#CULVER 8W      N/A         62  53  72  CALM    30.09S
#MADRAS 4S      N/A         63  33  32  S5      30.15S
#POWELL BUTTE 3EN/A         59  51  75  W1      N/A
#POWELL BUTTE   N/A         62  50  65  CALM    30.05S
#PRINEVILLE 3N  N/A         66  54  65  N8      29.99S
#WARM SPRINGS   N/A         71  57  61  CALM    30.01S

$$


ORZ509-261010-
EAST SLOPES OF OREGON CASCADES

CITY            SKY/WX      TMP DP  RH  WIND    PRES   REMARKS
SISTERS AWOS    N/A         63  54  72  CALM    30.08S
#CAMP SHERMAN   N/A         61  52  72  CALM    29.98S
#LA PINE DOT    N/A         58  52  80  S1      N/A
#LA PINE 4NW    N/A         51  46  83  CALM    29.98S
#LAVA BUTTE DOT N/A         60  53  78  SE2     N/A
#SISTERS AIRPOR N/A         61  58  90  CALM    30.17S
#SISTERS ODOT   N/A         57  N/A N/A E1      N/A
#SISTERS 3N     N/A         63  51  65  CALM    30.08S
#SUNRIVER       N/A         56  50  80  CALM    29.95S
#SUTTLE LK DOT  N/A         57  52  83  CALM    N/A
#TUMALO 3W      N/A         62  54  75  CALM    29.80S
#WANOGA BUTTE D N/A         64  42  45  CALM    N/A

$$

ORZ044-261010-
LOWER COLUMBIA BASIN...OREGON

CITY            SKY/WX      TMP DP  RH  WIND    PRES   REMARKS
HERMISTON       CLEAR       76  59  56  SW12    29.92R
#BOARDMAN 8SW   N/A         74  62  66  SW10    29.89R
#ECHO 8SW       N/A         77  57  50  W13     29.93R
#I-84 EX 198 DOTN/A         77  60  56  E15     N/A
#UMATILLA       N/A         76  59  56  CALM    29.82R
$$

ORZ507-261010-
NORTHERN FOOTHILLS OF THE BLUES

CITY            SKY/WX      TMP DP  RH  WIND    PRES   REMARKS
PENDLETON AIRPT CLEAR       69  46  44  E5      29.98R
#ADAMS 3WNW     N/A         66  51  58  CALM    29.89S
#ATHENA         N/A         63  50  62  CALM    29.93R
#CAYUSE         N/A         71  51  49  E3      29.88R
#HELIX SCHOOL   N/A         69  55  61  CALM    29.90R
#HELIX 3N       N/A         69  56  63  SW7     29.97R
#HOLDMAN 5SE    N/A         72  58  61  CALM    29.96R
#HOLDMAN 6E     N/A         71  58  64  N5      29.70S
#M-F GROVE ELEM N/A         75  53  46  CALM    29.93R
#M-FREEWATER 5SEN/A         70  53  55  CALM    29.96R
#PENDLETON DNTN N/A         67  42  40  NE2     29.98S
#PDT AQUATIC CTRN/A         68  41  37  CALM    29.80S
#PDT SUNRIDGE   N/A         67  48  50  CALM    29.98R
#PENDLETON 7NW  N/A         74  55  51  CALM    31.91S
#PILOT ROCK 1S  N/A         70  45  41  S6      30.00R
#PILOT ROCK     N/A         69  46  44  CALM    30.02R
#TUTUILLA       N/A         64  52  65  CALM    29.93S
#UMAPINE 2E     N/A         76  61  60  SW7     29.89S
#WESTON SCHOOL  N/A         67  49  52  NW1     29.83S

$$

ORZ508-261010-
SOUTHERN FOOTHILLS OF THE BLUES

CITY            SKY/WX      TMP DP  RH  WIND    PRES   REMARKS
LEXINGTON       CLEAR       72  55  55  SW9     30.04R
#AJAX           N/A         71  49  46  SE1     27.78S
#CONDON 5W      N/A         65  51  60  W7      30.07R
#HEPPNER EOC    N/A         71  53  53  S2      29.85R
#HEPPNER 4NE    N/A         68  54  61  S2      29.90R
#LEXINGTON 2SE  N/A         70  55  59  CALM    29.96R
#RUGGS 5NE      N/A         66  53  63  SW7     30.23S
#RUGGS 2SW      N/A         69  52  55  S5      29.92R

$$

ORZ502-503-261010-
BLUE MOUNTAINS

CITY            SKY/WX      TMP DP  RH  WIND    PRES   REMARKS
MEACHAM         CLEAR       51  44  77  CALM    30.11S
#BATTLE MTN DOT N/A         62  49  62  CALM    N/A
#CUTSFORTH PARK N/A         53  47  80  CALM    29.91S
#GREENHORN 9SW  N/A         53  44  71  CALM    30.09S
#HARDMAN 10S    N/A         64  49  58  CALM    29.98F
#HEPPNER 15SE   N/A         59  51  75  N1      25.65R
#LADD CYN SMT   N/A         67  42  40  N2      N/A
#LADD CREEK ODOTN/A         71  44  38  S1      N/A
#LONG CREEK HS  N/A         62  44  52  CALM    N/A
#N POWDER DOT   N/A         64  44  48  CALM    N/A
#PIKES PEAK     N/A         69  55  61  SW23    27.99S
#TOLLGATE       N/A         61  43  51  CALM    30.01S
#TROY SCHOOL    N/A         66  52  61  CALM    29.74R
#UKIAH          N/A         52  45  77  CALM    29.86R
#WESTON 4E      N/A         68  53  59  CALM    29.83S
$$

ORZ505-261010-
JOHN DAY BASIN

CITY            SKY/WX      TMP DP  RH  WIND    PRES   REMARKS
JOHN DAY        CLEAR       71  41  34  W6      30.10R
#DAYVILLE SCHOOLN/A         77  45  32  NW1     30.01R
#MITCHELL       N/A         63  51  65  CALM    30.25R
#MITCHELL 8NW   N/A         68  46  45  E1      30.09R
#MONUMENT HS    N/A         68  42  39  CALM    29.88R
#MT. VERNON 5SE N/A         68  42  39  CALM    30.06S
#SPRAY SCHOOL   N/A         69  N/A N/A CALM    N/A
$$

ORZ506-261010-
OCHOCO AND JOHN DAY HIGHLANDS

CITY            SKY/WX      TMP DP  RH  WIND    PRES   REMARKS
#BUCK CREEK DOT N/A         68  53  59  W8      N/A
#HORSE RIDGE DO N/A         57  48  72  SE3     N/A
#KEYES SMT DOT  N/A         65  45  48  N8      N/A
#PAULINA SCHOOL N/A         69  50  51  W9      N/A
#PINE MTN OBS   N/A         57  45  64  NW2     N/A
#PRAIRIE CITY   N/A         56  45  66  CALM    30.24
#SENECA         N/A         58  N/A N/A CALM    N/A
#SENECA 9NW     N/A         58  40  51  CALM    29.85S
$$

ORZ049-261010-
GRANDE RONDE VALLEY

CITY            SKY/WX      TMP DP  RH  WIND    PRES   REMARKS
LA GRANDE       CLEAR       68  39  35  N9      30.02R
#COVE           N/A         64  52  65  NW1     30.06S
#COVE SCHOOL    N/A         65  49  56  CALM    30.05R
#COVE 6NW       N/A         60  48  64  CALM    29.91R
#ELGIN 3N       N/A         59  45  60  CALM    30.00S
#ELGIN 1E       N/A         62  50  65  CALM    N/A
#IMBLER SCHOOL  N/A         64  47  54  CALM    29.98R
#ISLAND CITY 4N N/A         60  54  81  CALM    30.10R
#LADD CYN DOT   N/A         72  46  39  SE2     N/A
#UNION 1S       N/A         63  49  60  CALM    29.78S
$$

ORZ050-261010-
WALLOWA COUNTY

CITY            SKY/WX      TMP DP  RH  WIND    PRES   REMARKS
JOSEPH AIRPORT  PTCLDY      59  46  62  S3      N/A
#ENTERPRISE AP  N/A         49  29  46  CALM    30.03R
#ENTERPRISE HS  N/A         58  51  77  CALM    30.09R
#IMNAHA SCHOOL  N/A         66  51  58  N2      29.98R
#IMNAHA 10S     N/A         67  48  50  SW5     30.02R
#JOSEPH 3N      N/A         54  46  74  CALM    30.11R
#JOSEPH 3W      N/A         64  47  54  SW2     29.97S
#LOSTINE        N/A         57  50  77  CALM    29.69S
#LOSTINE 3SE    N/A         59  48  67  CALM    N/A
#MT HOWARD 8000 N/A         60  39  46  CALM    30.37S
#PROMISE 1S     N/A         63  47  56  CALM    29.96R
#WALLOWA SCHOOL N/A         58  52  80  CALM    30.01S



$$



USA.gov is the U.S. government's official web portal to all federal, state and local government web resources and services.